VOE5JS LIMJ-LIRN

Flight info

Callsign VOE5JS
Flight time N/A
Altitude 35000
Route UNITA1C/28 UNITA L50 KONER/N0446F350 DCT ELB DCT ELVIN DCT RIFFI DCT PNZ PNZ1A
Aircraft A319/M-SDE1E2E3FGHIJ2J3J4J5M1RWXYZ/LB1D1

Departure

Time 2026-04-26 19:05
Airport Genoa Cristoforo Colombo Airport (LIMJ)

Arrival

Time N/A
Airport Naples International Airport (LIRN)
Time Latitude Longitude Altitude Speed Heading
2026-04-26 18:28 44.41339 8.84666 28 ft 0 kts 195°
2026-04-26 18:52 44.41338 8.84666 28 ft 0 kts 195°
2026-04-26 18:54 44.41337 8.84666 28 ft 0 kts 195°
2026-04-26 18:55 44.41337 8.84692 28 ft 5 kts 27°
2026-04-26 18:55 44.41383 8.84707 28 ft 10 kts 358°
2026-04-26 18:55 44.41416 8.84610 28 ft 13 kts 264°
2026-04-26 18:55 44.41371 8.84508 28 ft 12 kts 230°
2026-04-26 18:56 44.41313 8.84444 28 ft 11 kts 147°
2026-04-26 18:56 44.41279 8.84539 28 ft 11 kts 106°
2026-04-26 18:56 44.41257 8.84659 28 ft 17 kts 104°
2026-04-26 18:56 44.41222 8.84847 28 ft 14 kts 108°
2026-04-26 18:57 44.41264 8.84931 28 ft 13 kts 15°
2026-04-26 18:57 44.41319 8.84951 28 ft 12 kts 18°
2026-04-26 18:57 44.41344 8.84986 28 ft 0 kts 84°
2026-04-26 18:57 44.41344 8.84987 28 ft 0 kts 84°
2026-04-26 18:58 44.41345 8.84987 28 ft 0 kts 84°
2026-04-26 19:00 44.41342 8.85022 28 ft 7 kts 105°
2026-04-26 19:00 44.41326 8.85115 28 ft 10 kts 102°
2026-04-26 19:00 44.41304 8.85207 28 ft 10 kts 108°
2026-04-26 19:01 44.41259 8.85279 28 ft 10 kts 159°
2026-04-26 19:01 44.41188 8.85269 28 ft 10 kts 195°
2026-04-26 19:01 44.41115 8.85241 28 ft 13 kts 196°
2026-04-26 19:01 44.41025 8.85184 28 ft 15 kts 168°
2026-04-26 19:02 44.40971 8.85321 28 ft 22 kts 104°
2026-04-26 19:02 44.40929 8.85536 28 ft 23 kts 105°
2026-04-26 19:02 44.40889 8.85746 28 ft 22 kts 106°
2026-04-26 19:02 44.40863 8.85886 28 ft 22 kts 104°
2026-04-26 19:03 44.40842 8.86054 28 ft 10 kts 215°
2026-04-26 19:03 44.40844 8.85981 28 ft 3 kts 287°
2026-04-26 19:03 44.40844 8.85979 28 ft 0 kts 287°
2026-04-26 19:04 44.40845 8.85978 28 ft 2 kts 287°
2026-04-26 19:04 44.40895 8.85731 28 ft 60 kts 286°
2026-04-26 19:04 44.41064 8.84860 28 ft 123 kts 285°
2026-04-26 19:05 44.41644 8.81919 624 ft 162 kts 285°
2026-04-26 19:05 44.41935 8.80406 1331 ft 160 kts 284°
2026-04-26 19:05 44.42225 8.78885 1888 ft 165 kts 282°
2026-04-26 19:06 44.42340 8.77165 2149 ft 193 kts 269°
2026-04-26 19:06 44.42126 8.75142 2379 ft 230 kts 256°
2026-04-26 19:06 44.41365 8.72985 2750 ft 263 kts 232°
2026-04-26 19:06 44.39960 8.71317 3551 ft 276 kts 210°
2026-04-26 19:07 44.38104 8.70461 4402 ft 288 kts 188°
2026-04-26 19:07 44.36095 8.70667 5420 ft 292 kts 167°
2026-04-26 19:07 44.34846 8.71375 6107 ft 295 kts 153°
2026-04-26 19:07 44.33069 8.72821 7170 ft 294 kts 154°
2026-04-26 19:08 44.30680 8.74620 8486 ft 293 kts 155°
2026-04-26 19:08 44.28907 8.75967 9572 ft 288 kts 155°
2026-04-26 19:08 44.27730 8.76863 10093 ft 293 kts 155°
2026-04-26 19:08 44.25890 8.78267 10567 ft 310 kts 155°
2026-04-26 19:09 44.24015 8.79711 11557 ft 304 kts 155°
2026-04-26 19:09 44.22134 8.81161 12296 ft 310 kts 155°
2026-04-26 19:09 44.20240 8.82624 13038 ft 313 kts 154°
2026-04-26 19:09 44.18343 8.84090 13736 ft 317 kts 154°
2026-04-26 19:10 44.16402 8.85590 14420 ft 320 kts 154°
2026-04-26 19:10 44.14443 8.87104 15080 ft 323 kts 154°
2026-04-26 19:10 44.12461 8.88636 15718 ft 327 kts 154°
2026-04-26 19:10 44.10465 8.90178 16332 ft 330 kts 154°
2026-04-26 19:11 44.08449 8.91734 16927 ft 333 kts 154°
2026-04-26 19:11 44.06438 8.93285 17497 ft 336 kts 154°
2026-04-26 19:11 44.04385 8.94869 18056 ft 339 kts 154°
2026-04-26 19:11 44.02314 8.96465 18599 ft 342 kts 154°
2026-04-26 19:12 44.00223 8.98075 19126 ft 344 kts 154°
2026-04-26 19:12 43.98117 8.99697 19639 ft 347 kts 154°
2026-04-26 19:12 43.95994 9.01329 20137 ft 350 kts 154°
2026-04-26 19:12 43.93879 9.03044 20621 ft 354 kts 150°
2026-04-26 19:13 43.91894 9.05118 21095 ft 359 kts 143°
2026-04-26 19:13 43.89999 9.07332 21550 ft 362 kts 143°
2026-04-26 19:13 43.88075 9.09606 21995 ft 364 kts 142°
2026-04-26 19:13 43.86139 9.11903 22434 ft 367 kts 142°
2026-04-26 19:14 43.84194 9.14215 22858 ft 369 kts 142°
2026-04-26 19:14 43.82236 9.16545 23277 ft 371 kts 142°
2026-04-26 19:14 43.80267 9.18885 23693 ft 374 kts 143°
2026-04-26 19:14 43.78941 9.20421 23964 ft 375 kts 143°
2026-04-26 19:15 43.76269 9.23493 24503 ft 378 kts 143°
2026-04-26 19:15 43.74238 9.25825 24903 ft 380 kts 143°
2026-04-26 19:15 43.72193 9.28174 25296 ft 383 kts 143°
2026-04-26 19:15 43.70141 9.30532 25686 ft 385 kts 143°
2026-04-26 19:16 43.68075 9.32903 26066 ft 387 kts 143°
2026-04-26 19:16 43.65996 9.35287 26445 ft 389 kts 143°
2026-04-26 19:16 43.63907 9.37682 26815 ft 392 kts 143°